Showing default

POLAR SCOUT YUKON, 43808

Orbit data source: Space-Track

POLAR SCOUT YUKON, 43808 is an American payload satellite in SSO that was launched on Mon, 03 Dec 2018 UTC via an FALCON 9 launch vehicle from the Air Force Western Test Range (AFWTR). Payload-class satellites include a variety of spacecraft equipped with specific instruments for various scientific and technological missions. These include communications satellites like Starlink; space stations such as the ISS; scientific satellites like the Hubble; Earth observation satellites from companies like Planet Labs, Umbra, and HawkEye 360; GPS; miniature CubeSats for education and research; and military/defense satellites.

Loading next visibility...
Identifier
43808, 2018-099BC
Orbit
SSO
Country
Flag of USUS
Related business
Manufacturer
Millenium EI
Mission
Operational Defense Technology
Bus & Motor
CUBESAT 6U, Unknown motor
Mass
10 kg wet, 10 kg dry
Launch date (UTC)
2018-12-03 (7 years ago)
Launch vehicle
FALCON 9
Launch site
Air Force Western Test Range (AFWTR)
Object type
Payload
Rocket body
Debris
Shape & HBR
Box + 3 Pan, 0.3 m
Radar Cross Section
0.054 m², Medium (>0.1 m² and < 1m²)

Expand to show TLE details & history
Last TLE update: 7 hours ago

TLE from 7 hours ago
0 POLAR SCOUT YUKON
1 43808U 18099BC  26034.64490906  .00022103  00000-0  71332-3 0  9990
2 43808  97.4831 105.5936 0006398  85.9938 274.2035 15.32133213393028
Epoch: 2026-02-03T15:28Z
TLE epoch observation values (Epoch: 2026-02-03T15:28:40.142Z)
Latitude
-0.00002°
Longitude
99.60347°
Altitude
472.235 km
Speed
7.63 km/s
True Right ascension
07h 02m 22s
True Declination
0° 00' 00"
Sunlit
Object was in full shadow at epoch
Visualization orbit readout
Latitude
Unknown
Longitude
Unknown
Altitude
Unknown
Speed
Unknown
Apparent Right ascension
Unknown
Apparent Declination
Unknown
Sunlit
N/A
Visualization observer readout
Local Sidereal Time
00:35:36
Azimuth
Unknown
Elevation
Unknown
Doppler factor
Unknown
Orbital elements
Apogee altitude
470.781 km
Perigee altitude
462.023 km
Semi-major axis
6,844.539 km
Eccentricity
0.00064
Inclination
97.4831°
RAAN
105.5936°
Arg. of periapsis
85.9938°
True anomaly
274.13038°
Mean anomaly
274.2035°
Eccentric anomaly
274.16694°
Mean motion
3.83289 °/min
Orbital period
93.92 mins
BSTAR
0.00071332
Loading maneuver chart data...
Computing Atmospheric mass density...
Loading historical data...
Loading historical data...
Loading historical data...
Loading historical data...
Loading historical data...
Loading historical data...
Loading historical data...

Documentation

Showing up to 5 results
|